Location: Schommer Observatory
(40.5200°N, 74.4500°W)
Time: 00:32:55
(UTC-05:00)

Vanguard 1 Rocket - Visible Passes

Search period start: 21 February 2018 00:00
Search period end: 03 March 2018 00:00
Orbit: 655 x 4222 km, 34.3° (Epoch: 19 February)

Date Brightness Start Highest point End Pass type
(mag) Time Alt. Az. Time Alt. Az. Time Alt. Az.
21 Feb 10.3 02:19:42 72° S 02:19:42 72° S 02:39:53 10° ESE visible
21 Feb 10.4 04:36:58 31° W 04:49:20 48° SW 05:05:09 10° SSE visible
21 Feb 10.6 19:49:32 10° S 20:02:32 30° SE 20:02:50 29° SE visible
21 Feb 10.6 22:11:43 10° SW 22:55:08 12° E 22:56:06 10° E visible
22 Feb 10.7 01:12:24 52° ESE 01:12:24 52° ESE 01:27:07 10° E visible
22 Feb 10.3 03:29:41 53° WSW 03:35:43 61° SSW 03:54:26 10° SE visible
22 Feb 10.7 05:46:58 12° W 06:03:40 29° SW 06:16:27 10° S visible
22 Feb 10.8 18:42:45 10° SSE 18:51:09 16° ESE 18:56:15 15° ESE visible
22 Feb 10.3 21:00:56 10° SSW 21:13:35 47° SSE 21:13:35 47° SSE visible
22 Feb 11.1 23:26:19 10° WSW 00:05:12 29° E 00:13:26 10° E visible
23 Feb 10.3 02:22:29 69° S 02:22:29 69° S 02:42:42 10° ESE visible
23 Feb 10.5 04:39:45 29° W 04:51:22 42° SW 05:07:22 10° SSE visible
23 Feb 10.4 19:51:18 10° SSW 20:04:25 35° SE 20:07:00 34° ESE visible
23 Feb 10.5 22:14:25 10° WSW 22:58:03 12° E 22:58:53 10° E visible
24 Feb 10.7 01:15:20 51° ESE 01:15:20 51° ESE 01:29:58 10° ESE visible
24 Feb 10.4 03:32:38 50° WSW 03:37:57 55° SSW 03:56:57 10° SE visible
24 Feb 10.9 05:49:56 11° W 06:05:26 23° SW 06:17:38 10° S visible
24 Feb 10.6 18:43:18 10° S 18:52:57 21° SE 19:00:23 17° E visible
24 Feb 10.1 21:03:26 10° SW 21:17:43 54° SSE 21:17:43 54° SSE visible
24 Feb 11.0 23:29:15 10° WSW 00:08:17 28° E 00:16:16 10° E visible
25 Feb 10.4 02:25:35 64° S 02:25:35 64° S 02:45:23 10° SE visible
25 Feb 10.7 04:42:54 27° W 04:53:16 36° SW 05:09:17 10° SSE visible
25 Feb 10.2 19:53:27 10° SSW 20:06:27 41° SE 20:11:05 37° ESE visible
25 Feb 10.3 22:17:16 10° WSW 23:01:19 11° E 23:01:38 10° E visible
26 Feb 10.7 00:45:02 10° W 01:18:37 48° SE 01:32:44 10° ESE visible
26 Feb 10.5 03:35:56 47° WSW 03:40:04 49° SW 03:59:13 10° SSE visible
26 Feb 11.1 05:53:46 10° W 06:07:08 18° WSW 06:17:57 10° SSW visible
26 Feb 10.4 18:44:42 10° S 18:54:51 27° SE 19:04:23 18° E visible
26 Feb 10.0 21:06:08 10° SW 21:21:30 60° SSE 21:21:43 60° SSE visible
26 Feb 10.9 23:32:14 10° W 00:11:45 27° ESE 00:19:02 10° ESE visible
27 Feb 10.5 02:29:04 58° S 02:29:04 58° S 02:47:53 10° SE visible
27 Feb 10.8 04:46:23 25° WSW 04:55:05 31° SW 05:10:47 10° S visible
27 Feb 10.0 19:55:52 10° SSW 20:08:38 47° SE 20:14:57 39° ESE visible
27 Feb 10.2 22:20:14 10° WSW 23:04:57 - E 22:32:17 57° SW visible
28 Feb 10.8 00:48:01 10° W 01:22:16 44° SE 01:35:23 10° ESE visible
28 Feb 10.6 03:39:36 43° SW 03:42:03 43° SW 04:01:13 10° SSE visible
28 Feb 11.3 06:00:11 10° W 06:08:49 13° WSW 06:16:28 10° SW visible
28 Feb 10.2 18:46:39 10° SSW 18:56:53 32° SE 19:08:08 18° E visible
28 Feb 9.9 21:09:00 10° WSW 21:24:00 65° SSE 21:25:27 64° SE visible
28 Feb 10.8 23:35:17 10° W 00:15:33 24° ESE 00:21:44 10° ESE visible
01 Mar 10.6 02:32:53 51° S 02:32:53 51° S 02:50:10 10° SE visible
01 Mar 11.0 04:50:13 22° WSW 04:56:49 25° SW 05:11:42 10° S visible
01 Mar 9.9 19:58:32 10° SW 20:10:59 53° SSE 20:18:33 39° ESE visible
01 Mar 10.2 22:23:17 10° WSW 23:08:54 - E 22:35:51 61° SW visible
02 Mar 10.9 00:51:02 10° W 01:26:15 38° SE 01:37:52 10° SE visible
02 Mar 10.7 03:43:35 37° SW 03:43:57 37° SW 04:02:51 10° SSE visible
02 Mar 10.0 18:48:56 10° SSW 18:59:04 38° SE 19:11:35 18° E visible
02 Mar 9.9 21:11:59 10° WSW 21:26:38 68° SSE 21:28:53 66° SE visible
